Weather History for Louisville Bowman, KY

Change the Weather History Date:

Friday, June 6, 2014

  Actual Average Record
Temperature  
Mean Temperature 73 °F 73 °F  
Max Temperature 85 °F 83 °F 91 °F (1952)
Min Temperature 61 °F 63 °F 48 °F (1993)
Degree Days  
Heating Degree Days 0 0  
Month to date heating degree days 0 2  
Since 1 June heating degree days 0 2  
Since 1 July heating degree days 4706 4267  
Cooling Degree Days 8 8  
Month to date cooling degree days 74 45  
Year to date cooling degree days 329 192  
Since 1 June cooling degree days 74 45  
Growing Degree Days 23 (Base 50)    
Moisture  
Dew Point 55 °F    
Average Humidity 56    
Maximum Humidity 78    
Minimum Humidity 34    
Precipitation  
Precipitation 0.00 in 0.17 in 1.11 in (1986)
Month to date precipitation 0.10 1.03  
Year to date precipitation 19.64 20.95  
Sea Level Pressure  
Sea Level Pressure 29.96 in    
Wind  
Wind Speed 3 mph (ENE)    
Max Wind Speed 9 mph    
Max Gust Speed 13 mph    
Visibility 10 miles    
Events      
T = Trace of Precipitation, MM = Missing Value Source: NWS Daily Summary

Daily Weather History Graph

Daily Weather History Graph

Search for Another Location

Airport:

Trip Planner

Search our weather history database for the weather conditions in past years. The results will help you decide how hot, cold, wet, or windy it might be!

Date:

Astronomy

Jun. 06, 2014 Rise Set
Actual Time 6:19 AM EDT 9:03 PM EDT
Civil Twilight 5:48 AM EDT 9:34 PM EDT
Nautical Twilight 5:09 AM EDT 10:13 PM EDT
Astronomical Twilight 4:25 AM EDT 10:58 PM EDT
Moon 2:27 PM EDT (6/6) 2:05 AM EDT (6/6)
Length of Visible Light 15h 46m
Length of Day
14h 43m
First Quarter, 58% of the Moon is Illuminated
Jun 6
First Quarter
Jun 13
Full
Jun 19
Last Quarter
Jun 27
New
Jul 5
First Quarter

Hourly Weather History & Observations

Time (EDT) Temp. Heat Index Dew Point Humidity Pressure Visibility Wind Dir Wind Speed Gust Speed Precip Events Conditions
12:53 AM 69.1 °F - 55.9 °F 63% 29.94 in 10.0 mi Calm Calm - N/A   Clear
1:53 AM 66.0 °F - 55.9 °F 70% 29.93 in 10.0 mi Calm Calm - N/A   Partly Cloudy
2:53 AM 64.9 °F - 57.0 °F 75% 29.93 in 10.0 mi Calm Calm - N/A   Partly Cloudy
3:53 AM 64.0 °F - 55.9 °F 75% 29.93 in 10.0 mi Calm Calm - N/A   Clear
4:53 AM 64.0 °F - 55.0 °F 73% 29.94 in 10.0 mi Calm Calm - N/A   Clear
5:53 AM 62.1 °F - 55.0 °F 78% 29.96 in 10.0 mi Calm Calm - N/A   Clear
6:53 AM 62.1 °F - 55.0 °F 78% 29.96 in 10.0 mi Calm Calm - N/A   Clear
7:53 AM 68.0 °F - 55.0 °F 63% 29.97 in 10.0 mi East 3.5 mph - N/A   Clear
8:53 AM 70.0 °F - 55.0 °F 59% 29.99 in 10.0 mi East 4.6 mph - N/A   Clear
9:53 AM 73.9 °F - 55.9 °F 53% 30.00 in 10.0 mi ENE 3.5 mph - N/A   Clear
10:53 AM 75.2 °F - 55.4 °F 50% 30.01 in 10.0 mi Variable 3.5 mph - N/A   Clear
11:53 AM 79.0 °F - 54.0 °F 42% 29.98 in 10.0 mi North - - N/A   Clear
12:53 PM 80.1 °F 80.2 °F 55.9 °F 43% 29.98 in 10.0 mi Calm Calm - N/A   Partly Cloudy
1:53 PM 82.0 °F 81.4 °F 55.0 °F 39% 29.99 in 10.0 mi NE 3.5 mph - N/A   Clear
2:53 PM 82.0 °F 81.4 °F 55.0 °F 39% 29.98 in 10.0 mi Calm Calm - N/A   Mostly Cloudy
3:53 PM 84.0 °F 82.6 °F 54.0 °F 35% 29.97 in 10.0 mi Variable 4.6 mph - N/A   Partly Cloudy
5:53 PM 84.0 °F 82.6 °F 54.0 °F 35% 29.93 in 10.0 mi ENE 6.9 mph - N/A   Partly Cloudy
6:53 PM 82.9 °F 81.8 °F 53.1 °F 36% 29.94 in 10.0 mi Variable 3.5 mph - N/A   Clear
7:53 PM 82.0 °F 81.2 °F 53.1 °F 37% 29.95 in 10.0 mi East 3.5 mph - N/A   Clear
8:53 PM 80.1 °F 79.9 °F 53.1 °F 39% 29.96 in 10.0 mi East 3.5 mph - N/A   Partly Cloudy
9:53 PM 78.1 °F - 54.0 °F 43% 29.96 in 10.0 mi ENE 3.5 mph - N/A   Clear
10:53 PM 75.9 °F - 55.0 °F 48% 29.97 in 10.0 mi ENE 3.5 mph - N/A   Clear
11:53 PM 73.9 °F - 53.1 °F 48% 29.97 in 10.0 mi ENE 4.6 mph - N/A   Clear